Simultaneous Nadir Overpasses (SNOs) Predictions

Prediction of SNOs near US between AQUA and NPP Satellite Orbit:

Table of predicted SNOs near US for the next 10.0 days since TLE Epoch: 2/5/2016
Index Date (AQUA) Time (AQUA) AQUA Lat,Lon Date (NPP) Time (NPP) NPP Lat,Lon Distance(km) Time Diff (sec)
1 02/07/2016 07:45:40 20.03, -89.50 02/07/2016 07:37:20 18.18, -89.80 207.66 500
2 02/07/2016 09:22:32 27.32,-112.47 02/07/2016 09:16:13 27.38,-112.86 39.52 379
3 02/10/2016 06:30:21 46.28, -65.03 02/10/2016 06:32:02 46.67, -67.05 160.66 101
4 02/10/2016 08:08:13 49.91, -88.31 02/10/2016 08:12:27 50.41, -90.84 188.14 254
5 02/10/2016 09:47:06 49.91,-113.03 02/10/2016 09:53:55 50.51,-116.16 232.57 409
6 02/12/2016 19:06:21 49.97, -92.52 02/12/2016 19:02:41 49.62, -94.34 136.12 220
7 02/12/2016 20:45:14 49.97,-117.24 02/12/2016 20:44:09 49.52,-119.67 181.42 65
8 02/15/2016 08:34:20 22.51,-101.25 02/15/2016 08:26:41 22.54,-101.40 15.38 459
9 02/15/2016 10:10:42 31.59,-123.68 02/15/2016 10:05:34 31.72,-124.34 63.41 308




NCC Satellite Simultaneous Nadir Overpasses (SNOs) Prediction Service
